Location: Unspecified
(51.0950°N, 12.9690°E)
Time: 21:42:20
(UTC+00:00)

Cosmos 1263 - Pass Details

Date: 28 October 2021
Orbit: 383 x 1335 km, 82.9° (Epoch: 01 December)

Event Time Altitude Azimuth Distance (km) Brightness Sun altitude
Rises 17:37:09 0° 352° (N) 2,817 8.5 -17.4°
Reaches altitude 10° 17:39:36 10° 357° (N) 1,778 7.5 -17.8°
Enters shadow 17:43:12 54° 67° (ENE) 564 4.5 -18.4°
